Weather History for K0E0 - March, 2013

Change the Weather History Date:

Tuesday, March 19, 2013

  Actual Average (KABQ) Record (KABQ)
Temperature  
Mean Temperature 44 °F 49 °F  
Max Temperature 59 °F 61 °F 85 °F (1907)
Min Temperature 29 °F 36 °F 19 °F (1977)
Degree Days  
Heating Degree Days 21 16  
Month to date heating degree days 346  
Since 1 July heating degree days 3649  
Cooling Degree Days 0 0  
Month to date cooling degree days 0  
Year to date cooling degree days 0  
Moisture  
Dew Point 11 °F    
Average Humidity 25    
Maximum Humidity 44    
Minimum Humidity 15    
Precipitation  
Precipitation 0.00 in 0.02 in 0.26 in (2003)
Month to date precipitation 0.34  
Year to date precipitation 1.20  
Snow  
Snow 0.00 in - - ()
Month to date snowfall  
Since 1 July snowfall  
Snow Depth -    
Sea Level Pressure  
Sea Level Pressure 30.10 in    
Wind  
Wind Speed 9 mph (NW)    
Max Wind Speed 21 mph    
Max Gust Speed 29 mph    
Visibility 10 miles    
Events      
T = Trace of Precipitation, MM = Missing Value Source: NWS Daily Summary

Daily Weather History Graph

Daily Weather History Graph

Search for Another Location

Airport or City:

Trip Planner

Search our weather history database for the weather conditions in past years. The results will help you decide how hot, cold, wet, or windy it might be!

Date:

Astronomy

Mar. 19, 2013 Rise Set
Actual Time 7:08 AM MDT 7:15 PM MDT
Civil Twilight 6:43 AM MDT 7:40 PM MDT
Nautical Twilight 6:14 AM MDT 8:09 PM MDT
Astronomical Twilight 5:44 AM MDT 8:39 PM MDT
Moon 12:13 PM MDT (3/19) 1:51 AM MDT (3/19)
Length of Visible Light 12h 57m
Length of Day
12h 06m
Waxing Crescent, 50% of the Moon is Illuminated
Mar 19
Waxing Crescent
Mar 27
Full
Apr 2
Last Quarter
Apr 10
New
Apr 18
First Quarter

Hourly Weather History & Observations

Time (MDT) Temp. Windchill Dew Point Humidity Pressure Visibility Wind Dir Wind Speed Gust Speed Precip Events Conditions
12:15 AM 34.9 °F 29.0 °F 5.9 °F 30% 30.05 in 10.0 mi WSW 6.9 mph - N/A   Clear
12:35 AM 34.9 °F 32.0 °F 5.5 °F 29% 30.05 in 10.0 mi North 3.5 mph - N/A   Clear
12:55 AM 29.7 °F 26.1 °F 4.8 °F 35% 30.05 in 10.0 mi NW 3.5 mph - N/A   Clear
1:15 AM 33.6 °F 25.0 °F 6.6 °F 32% 30.05 in 10.0 mi West 11.5 mph - N/A   Clear
1:35 AM 41.9 °F 35.4 °F 5.4 °F 22% 30.05 in 10.0 mi West 11.5 mph - N/A   Clear
1:55 AM 40.3 °F 33.4 °F 5.0 °F 23% 30.05 in 10.0 mi West 11.5 mph - N/A   Clear
2:15 AM 40.3 °F 33.0 °F 4.5 °F 23% 30.05 in 10.0 mi West 12.7 mph - N/A   Clear
2:35 AM 41.9 °F 35.4 °F 3.4 °F 20% 30.04 in 10.0 mi West 11.5 mph - N/A   Clear
2:55 AM 39.2 °F 31.6 °F 4.1 °F 23% 30.04 in 10.0 mi WNW 12.7 mph - N/A   Clear
3:15 AM 40.1 °F 32.4 °F 3.0 °F 21% 30.04 in 10.0 mi West 13.8 mph - N/A   Clear
3:35 AM 41.2 °F 34.5 °F 2.1 °F 20% 30.02 in 10.0 mi West 11.5 mph - N/A   Clear
3:55 AM 41.4 °F 35.7 °F 2.3 °F 20% 30.02 in 10.0 mi West 9.2 mph - N/A   Clear
4:15 AM 41.0 °F 35.2 °F 2.3 °F 20% 30.02 in 10.0 mi West 9.2 mph - N/A   Clear
4:35 AM 38.3 °F 35.9 °F 3.6 °F 23% 30.02 in 10.0 mi West 3.5 mph - N/A   Clear
4:55 AM 34.2 °F - 4.6 °F 29% 30.02 in 10.0 mi Calm Calm - N/A   Clear
5:15 AM 33.6 °F 28.4 °F 4.1 °F 29% 30.02 in 10.0 mi NNE 5.8 mph - N/A   Clear
5:35 AM 32.4 °F 29.1 °F 5.2 °F 32% 30.02 in 10.0 mi NNE 3.5 mph - N/A   Clear
5:55 AM 35.8 °F 33.0 °F 4.1 °F 27% 30.02 in 10.0 mi NNE 3.5 mph - N/A   Clear
6:15 AM 35.8 °F 30.9 °F 4.5 °F 27% 30.02 in 10.0 mi North 5.8 mph - N/A   Clear
6:35 AM 35.4 °F 32.6 °F 5.4 °F 28% 30.02 in 10.0 mi North 3.5 mph - N/A   Clear
6:55 AM 38.3 °F 35.9 °F 5.7 °F 26% 30.02 in 10.0 mi NNE 3.5 mph - N/A   Clear
7:15 AM 36.0 °F 33.3 °F 7.0 °F 30% 30.02 in 10.0 mi NE 3.5 mph - N/A   Clear
7:35 AM 36.3 °F 33.7 °F 7.7 °F 30% 30.03 in 10.0 mi North 3.5 mph - N/A   Clear
7:55 AM 43.9 °F 38.3 °F 12.4 °F 28% 30.04 in 10.0 mi WNW 10.4 mph - N/A   Clear
8:15 AM 45.9 °F 40.8 °F 14.5 °F 28% 30.05 in 10.0 mi WNW 10.4 mph 16.1 mph N/A   Clear
8:35 AM 46.9 °F - 16.0 °F 29% 30.05 in 10.0 mi WNW 8.1 mph - N/A   Clear
8:55 AM 48.2 °F - 17.4 °F 29% 30.07 in 10.0 mi WNW 6.9 mph - N/A   Clear
9:15 AM 49.1 °F - 17.6 °F 29% 30.08 in 10.0 mi WNW 5.8 mph - N/A   Clear
9:35 AM 50.5 °F - 17.4 °F 27% 30.08 in 10.0 mi WNW 5.8 mph - N/A   Clear
9:55 AM 51.8 °F - 17.2 °F 26% 30.10 in 10.0 mi West 6.9 mph - N/A   Clear
10:15 AM 53.2 °F - 18.9 °F 26% 30.08 in 10.0 mi West 11.5 mph - N/A   Clear
10:35 AM 54.3 °F - 18.3 °F 24% 30.08 in 10.0 mi West 11.5 mph - N/A   Clear
10:55 AM 54.7 °F - 17.4 °F 23% 30.08 in 10.0 mi WNW 5.8 mph - N/A   Clear
11:15 AM 56.1 °F - 14.5 °F 19% 30.08 in 10.0 mi NNW 8.1 mph - N/A   Clear
11:35 AM 57.2 °F - 11.1 °F 16% 30.08 in 10.0 mi North 9.2 mph - N/A   Clear
11:55 AM 57.7 °F - 9.9 °F 15% 30.09 in 10.0 mi NNW 17.3 mph 21.9 mph N/A   Clear
12:15 PM 58.1 °F - 10.2 °F 15% 30.09 in 10.0 mi NW 13.8 mph 21.9 mph N/A   Clear
12:35 PM 57.9 °F - 11.8 °F 16% 30.09 in 10.0 mi WNW 20.7 mph 28.8 mph N/A   Clear
12:55 PM 57.2 °F - 14.4 °F 19% 30.09 in 10.0 mi WNW 12.7 mph 24.2 mph N/A   Clear
1:15 PM 57.0 °F - 18.0 °F 22% 30.08 in 10.0 mi West 17.3 mph - N/A   Clear
1:35 PM 57.4 °F - 16.5 °F 20% 30.08 in 10.0 mi West 12.7 mph 26.5 mph N/A   Clear
1:55 PM 57.6 °F - 17.6 °F 21% 30.07 in 10.0 mi West 13.8 mph - N/A   Clear
2:15 PM 57.6 °F - 18.0 °F 21% 30.07 in 10.0 mi West 18.4 mph 24.2 mph N/A   Clear
2:35 PM 58.1 °F - 15.6 °F 19% 30.07 in 10.0 mi NW 16.1 mph 20.7 mph N/A   Scattered Clouds
2:55 PM 58.1 °F - 10.8 °F 15% 30.07 in 10.0 mi NW 17.3 mph - N/A   Scattered Clouds
3:15 PM 57.2 °F - 9.5 °F 15% 30.08 in 10.0 mi NW 10.4 mph 20.7 mph N/A   Mostly Cloudy
3:35 PM 57.7 °F - 10.0 °F 15% 30.08 in 10.0 mi NNW 12.7 mph 17.3 mph N/A   Overcast
3:55 PM 57.9 °F - 10.0 °F 15% 30.08 in 10.0 mi NNW 17.3 mph 23.0 mph N/A   Mostly Cloudy
4:15 PM 57.7 °F - 9.5 °F 15% 30.08 in 10.0 mi NW 13.8 mph 25.3 mph N/A   Scattered Clouds
4:35 PM 59.0 °F - 10.4 °F 15% 30.08 in 10.0 mi NW 20.7 mph 25.3 mph N/A   Clear
4:55 PM 57.2 °F - 10.0 °F 15% 30.09 in 10.0 mi NW 13.8 mph 20.7 mph N/A   Scattered Clouds
5:15 PM 58.8 °F - 10.8 °F 15% 30.10 in 10.0 mi NNW 13.8 mph 20.7 mph N/A   Scattered Clouds
5:35 PM 58.5 °F - 10.6 °F 15% 30.11 in 10.0 mi NW 8.1 mph 19.6 mph N/A   Clear
5:55 PM 57.4 °F - 10.4 °F 16% 30.12 in 10.0 mi NW 13.8 mph 17.3 mph N/A   Clear
6:15 PM 56.8 °F - 10.6 °F 16% 30.13 in 10.0 mi NW 16.1 mph 21.9 mph N/A   Clear
6:35 PM 55.6 °F - 12.0 °F 18% 30.14 in 10.0 mi NNW 9.2 mph 19.6 mph N/A   Clear
6:55 PM 53.4 °F - 12.9 °F 20% 30.14 in 10.0 mi North 6.9 mph - N/A   Clear
7:15 PM 49.3 °F - 12.2 °F 23% 30.15 in 10.0 mi North 5.8 mph - N/A   Clear
7:35 PM 46.0 °F 43.9 °F 12.0 °F 25% 30.16 in 10.0 mi NE 4.6 mph - N/A   Clear
7:55 PM 43.0 °F 41.3 °F 12.0 °F 28% 30.16 in 10.0 mi NNE 3.5 mph - N/A   Clear
8:15 PM 39.7 °F 35.6 °F 12.2 °F 32% 30.18 in 10.0 mi NE 5.8 mph - N/A   Clear
8:35 PM 38.8 °F 34.6 °F 13.1 °F 35% 30.19 in 10.0 mi ENE 5.8 mph - N/A   Clear
8:55 PM 36.9 °F 30.7 °F 13.1 °F 38% 30.20 in 10.0 mi East 8.1 mph - N/A   Clear
9:15 PM 39.7 °F 33.2 °F 15.8 °F 38% 30.20 in 10.0 mi East 10.4 mph - N/A   Clear
9:35 PM 39.2 °F 32.0 °F 13.8 °F 36% 30.22 in 10.0 mi East 11.5 mph - N/A   Clear
9:55 PM 36.0 °F 31.1 °F 13.5 °F 40% 30.23 in 10.0 mi SW 5.8 mph - N/A   Clear
10:15 PM 39.6 °F 36.3 °F 13.1 °F 34% 30.25 in 10.0 mi SSE 4.6 mph - N/A   Clear
10:35 PM 36.0 °F 33.3 °F 13.3 °F 39% 30.26 in 10.0 mi South 3.5 mph - N/A   Clear
10:55 PM 35.1 °F 30.1 °F 12.9 °F 40% 30.27 in 10.0 mi WSW 5.8 mph - N/A   Clear
11:15 PM 34.0 °F 28.0 °F 13.6 °F 43% 30.28 in 10.0 mi South 6.9 mph - N/A   Clear
11:35 PM 33.6 °F 29.4 °F 13.5 °F 44% 30.28 in 10.0 mi SW 4.6 mph - N/A   Clear
11:55 PM 33.8 °F 30.8 °F 13.3 °F 43% 30.29 in 10.0 mi SW 3.5 mph - N/A   Clear